TimeEDT,TemperatureF,Dew PointF,Humidity,Sea Level PressureIn,VisibilityMPH,Wind Direction,Wind SpeedMPH,Gust SpeedMPH,PrecipitationIn,Events,Conditions,WindDirDegrees,DateUTC
12:53 AM,37.0,16.0,42,30.12,10.0,WNW,6.9,-,N/A,,Clear,300,2013-03-15 04:53:00
1:53 AM,36.0,17.1,46,30.10,10.0,WNW,11.5,-,N/A,,Clear,300,2013-03-15 05:53:00
2:53 AM,35.1,18.0,50,30.09,10.0,West,9.2,-,N/A,,Clear,280,2013-03-15 06:53:00
3:53 AM,36.0,17.1,46,30.08,10.0,WNW,9.2,-,N/A,,Clear,290,2013-03-15 07:53:00
4:53 AM,35.1,17.1,48,30.07,10.0,WNW,8.1,-,N/A,,Clear,290,2013-03-15 08:53:00
5:53 AM,32.0,17.1,54,30.06,10.0,SW,4.6,-,N/A,,Clear,230,2013-03-15 09:53:00
6:53 AM,28.9,17.1,61,30.06,10.0,Calm,Calm,-,N/A,,Clear,0,2013-03-15 10:53:00
7:53 AM,35.1,16.0,46,30.05,10.0,SW,5.8,-,N/A,,Clear,220,2013-03-15 11:53:00
8:53 AM,37.9,16.0,41,30.04,10.0,SW,8.1,-,N/A,,Clear,220,2013-03-15 12:53:00
9:53 AM,39.9,17.1,40,30.01,10.0,SSW,6.9,-,N/A,,Partly Cloudy,200,2013-03-15 13:53:00
10:53 AM,45.0,18.0,34,29.98,10.0,South,10.4,-,N/A,,Overcast,180,2013-03-15 14:53:00
11:53 AM,48.0,18.0,30,29.94,10.0,SW,10.4,-,N/A,,Clear,220,2013-03-15 15:53:00
12:53 PM,52.0,19.9,28,29.92,10.0,SW,8.1,-,N/A,,Mostly Cloudy,220,2013-03-15 16:53:00
1:53 PM,52.0,24.1,34,29.88,10.0,West,15.0,20.7,N/A,,Overcast,260,2013-03-15 17:53:00
2:12 PM,55.4,26.6,33,29.86,10.0,West,17.3,-,N/A,,Scattered Clouds,270,2013-03-15 18:12:00
2:53 PM,55.9,28.0,34,29.83,10.0,WNW,16.1,19.6,N/A,,Partly Cloudy,290,2013-03-15 18:53:00
3:53 PM,55.0,28.9,37,29.81,10.0,WSW,10.4,-,N/A,,Mostly Cloudy,240,2013-03-15 19:53:00
4:53 PM,55.9,30.9,39,29.80,10.0,West,13.8,-,N/A,,Clear,260,2013-03-15 20:53:00
5:53 PM,57.0,30.0,36,29.79,10.0,WSW,13.8,-,N/A,,Clear,250,2013-03-15 21:53:00
6:53 PM,55.0,28.9,37,29.80,10.0,West,16.1,-,N/A,,Clear,270,2013-03-15 22:53:00
7:53 PM,53.1,30.0,41,29.81,10.0,West,12.7,-,N/A,,Scattered Clouds,260,2013-03-15 23:53:00
8:53 PM,53.1,28.9,40,29.82,10.0,West,16.1,-,N/A,,Clear,280,2013-03-16 00:53:00
9:53 PM,50.0,30.0,46,29.82,10.0,West,8.1,-,N/A,,Clear,260,2013-03-16 01:53:00
10:53 PM,50.0,30.0,46,29.81,10.0,West,9.2,-,N/A,,Clear,260,2013-03-16 02:53:00
11:53 PM,46.0,30.0,54,29.81,10.0,WSW,6.9,-,N/A,,Clear,250,2013-03-16 03:53:00